{"data":{"norad_id":63295,"intl_designator":"2025-055E","name":"2025-055E","alt_names":[],"object_type":"PAYLOAD","status":"ACTIVE","operator":null,"country":"PRC","launch_date":"2025-03-17","launch_site_code":"JSC","launch_vehicle":null,"mission":null,"orbit_class":"UNKNOWN","rcs_meters":null,"size_class":null,"mass_kg":null,"dimensions":null,"purposes":[],"wikipedia_slug":null,"has_3d_model":false,"image_url":null,"decayed_at":null,"tle_current":{"epoch":"2026-09-22T23:10:38.320320Z","epoch_age_seconds":95770,"freshness":"FRESH","line1":"1 63295U 25055E   26265.96572130  .00005511  00000+0  30317-3 0  9994","line2":"2 63295  97.6624  46.2101 0023727 118.6856 241.6764 15.14240134 83805","mean_motion":15.14240134,"eccentricity":0.0023727,"inclination_deg":97.6624,"raan_deg":46.2101,"arg_perigee_deg":118.6856,"mean_anomaly_deg":241.6764,"bstar":0.00030317,"rev_number":8380,"period_min":95.097202066367,"perigee_km":506.91140550098,"apogee_km":539.66142016424,"semimajor_km":6901.4234128326,"source":"CELESTRAK","updated_at":"2026-09-23T09:00:21.957534Z"}}}